Location: Newark
(20.5800°N, 87.1197°W)
Time: 03:27:38
(UTC+00:00)

N. Korean satellite - Pass Details

Date: 08 August 2020
Orbit: 455 x 503 km, 97.2° (Epoch: 22 September)

Event Time Altitude Azimuth Distance (km) Brightness Sun altitude
Rises 10:41:21 0° 26° (NNE) 2,521 11.0 -10.6°
Reaches altitude 10° 10:43:36 10° 38° (NE) 1,650 10.3 -10.1°
Maximum altitude 10:46:41 28° 99° (E) 940 8.8 -9.5°
Drops below altitude 10° 10:49:47 10° 159° (SSE) 1,669 9.3 -8.8°
Sets 10:52:04 0° 171° (S) 2,556 10.1 -8.3°
